Regional Weather Roundup
Issued by NWS

Home | Current Version | Previous Version | Graphics & Text | Print | Product List | Glossary Off
Versions: 1 2 3 4 5 6 7 8 9 10 11 12 13 14 15 16 17 18 19 20 21 22 23 24 25 26 27 28 29 30 31 32 33 34 35 36 37 38 39 40 41 42 43 44 45 46 47 48 49 50

000
ASUS43 KMKX 031700
RWRWI

WISCONSIN REGIONAL WEATHER ROUNDUP
NATIONAL WEATHER SERVICE MILWAUKEE/SULLIVAN WI
1200 PM CDT SUN MAY 03 2015

NOTE: "FAIR" INDICATES FEW OR NO CLOUDS BELOW 12,000 FEET WITH NO
SIGNIFICANT WEATHER AND/OR OBSTRUCTIONS TO VISIBILITY.

WIZ001-002-006>008-014>016-023>028-031800-
NORTHWEST WISCONSIN

CITY           SKY/WX    TMP DP  RH WIND       PRES   REMARKS
SUPERIOR ARPT  MOSUNNY   75  55  48 W6        29.74S
ASHLAND        PTSUNNY   77  53  43 W6        29.76R
HAYWARD        MOSUNNY   72  50  45 S14       29.80R
SIREN          MOSUNNY   71  51  48 SW6       29.80R
CUMBERLAND     MOSUNNY   68  52  56 W7        29.82R
RICE LAKE      MOSUNNY   71  52  51 SW8       29.83R
CHETEK         MOSUNNY   71  55  55 S6        29.80S
LADYSMITH      MOSUNNY   71  55  56 SW10G18   29.83S
EAU CLAIRE     NOT AVBL
MENOMONIE      MOSUNNY   71  53  52 S8        29.81S
NEW RICHMOND   MOSUNNY   71  52  50 SW3       29.80R
OSCEOLA        MOSUNNY   70  53  56 CALM      29.82S
$$

WIZ003>005-009-010-017-018-031800-
NORTH CENTRAL WISCONSIN

CITY           SKY/WX    TMP DP  RH WIND       PRES   REMARKS
MANITOWISH WTR MOSUNNY   71  53  52 S14       29.79F
ARBOR VITAE    SUNNY     72  53  51 SW12      29.81S
WOODRUFF       SUNNY     72  53  51 SW12      29.81S
RHINELANDER    SUNNY     73  52  47 S16       29.83R
EAGLE RIVER    SUNNY     71  48  45 S8G17     29.81S
LAND O LAKES   SUNNY     73  49  41 S7        29.81S
PHILLIPS       MOSUNNY   71  53  53 SW12G20   29.80S
TOMAHAWK       SUNNY     72  52  48 S5        29.82S
MEDFORD        MOSUNNY   68  51  55 S10       29.83R
MERRILL        SUNNY     70  52  53 S8        29.83S
$$

WIZ029-030-035-036-043>047-031800-
CENTRAL WISCONSIN

CITY           SKY/WX    TMP DP  RH WIND       PRES   REMARKS
WAUSAU         MOSUNNY   73  51  46 S10       29.82F
MOSINEE        SUNNY     72  52  49 S9        29.85F
MARSHFIELD     MOSUNNY   74  51  44 S15       29.83F
STEVENS POINT  MOSUNNY   72  50  45 SW9G20    29.85F
WAUPACA        PTSUNNY   78  50  36 S8G16     29.86F
WAUTOMA        NOT AVBL
WISC RAPIDS    MOSUNNY   75  49  39 SW12      29.85F
CAMP DOUGLAS   NOT AVBL
$$

WIZ011>013-019>022-031-037>040-048>050-031800-
NORTHEAST WISCONSIN

CITY           SKY/WX    TMP DP  RH WIND       PRES   REMARKS
ANTIGO         SUNNY     70  52  52 SW12      29.85F
SHAWANO        PTSUNNY   76  51  41 S7        29.86S
OCONTO         PTSUNNY   75  52  43 S7        29.85F
STURGEON BAY   PTSUNNY   70  50  49 S12       29.89S
GREEN BAY      PTSUNNY   75  50  41 SW13G22   29.86F
MANITOWOC      NOT AVBL
APPLETON       PTSUNNY   73  48  40 SW21      29.88F
CLINTONVILLE   PTSUNNY   73  48  40 SW16      29.86S
OSHKOSH        PTSUNNY   75  51  43 SW13G26   29.87F
$$

WIZ032>034-041-042-053>061-031800-
SOUTHWEST WISCONSIN

CITY           SKY/WX    TMP DP  RH WIND       PRES   REMARKS
LA CROSSE      PTSUNNY   73  53  49 S9        29.82F
SPARTA         PTSUNNY   73  50  44 S8G18     29.85R
VIROQUA        PTSUNNY   70  52  51 SW12      29.87R
BOSCOBEL       CLOUDY    74  54  49 SW14G20   29.86S
PRAIRIE DU CHI CLOUDY    71  51  49 S10       29.85F
PLATTEVILLE    CLOUDY    67  52  58 SW18      29.91R
$$

WIZ056-057-062-063-064-067-068-031800-
SOUTH CENTRAL WISCONSIN

CITY           SKY/WX    TMP DP  RH WIND       PRES   REMARKS
REEDSBURG      CLOUDY    70  53  55 S13       29.86F
BARABOO/DELLS  NOT AVBL
LONE ROCK      NOT AVBL
MINERAL POINT  CLOUDY    70  54  56 S16       29.90R
MADISON        CLOUDY    73  53  49 S9        29.89S
MIDDLETON      PTSUNNY   76  50  39 S17G23    29.89F
WATERTOWN      CLOUDY    69  50  51 S13G22    29.91S
MONROE         PTSUNNY   68  55  64 S21G28    29.91S
JANESVILLE     PTSUNNY   77  52  41 SW17G23   29.91F
$$

WIZ051-052-058>065-066-070>072-031800-
SOUTHEAST WISCONSIN

CITY           SKY/WX    TMP DP  RH WIND       PRES   REMARKS
MILWAUKEE      CLOUDY    72  48  42 S12       29.93F
WAUKESHA       PTSUNNY   70  46  43 S10G21    29.94F
MILWAUKEE/TIMM NOT AVBL
RACINE         CLOUDY    68  46  45 S12       29.95F
BURLINGTON     CLOUDY    74  47  38 SW14G28   29.93S
KENOSHA        CLOUDY    75  49  39 SW16G22   29.94F
FOND DU LAC    PTSUNNY   77  49  37 SW17G28   29.88S
SHEBOYGAN      PTSUNNY   75  49  39 S12G21    29.89F
WEST BEND      PTSUNNY   72  45  37 S15       29.91S
JUNEAU         PTSUNNY   70  51  50 SW16      29.92R
$$

LSZ147-162-031800-
LAKE SUPERIOR

STATION/POSITION TIME  TEMP    WIND        PRES    WAVE
                       AIR SEA DIR/SP/G            HT/PER
                 (UTC) (F)     (DEG/KT/KT) (MB)    (FT/S)
W MID LAKE BUOY  1550   43 35  200/  8/ 10 1007.4R   1
DEVILS ISLAND    1600   59     210/  8/ 11 1006.6F
PORT WING        1600   66     260/  8/ 12 1007.1
SAXON HARBOR     1600           60/  7     1007.5R
$$

LMZ867-665-643>646-031800-
LAKE MICHIGAN

STATION/POSITION TIME  TEMP    WIND        PRES    WAVE
                       AIR SEA DIR/SP/G            HT/PER
                 (UTC) (F)     (DEG/KT/KT) (MB)    (FT/S)
CHAMBERS ISLAND  1600   68     190/  7/ 20 1011.2F
NORTHPORT PIER   1600   54     140/  7/  9 1011.5F
KEWAUNEE LAKESHO 1600   49     180/ 13/ 16 1011.6R
SHEBOYGAN LAKESH 1600   51     170/ 21/ 22 1013.1F
PORT WASHINGTON  1600   52     140/  4/  5 1013.9
ATWATER BUOY     1600   49     160/ 10/ 14 1014.7S
MILWAUKEE LAKESH 1600          200/ 12/ 14   N/A
KENOSHA   LAKESH 1600   51     170/ 11/ 14 1014.2R
$$

TC  - TEMPERATURE IN CELSIUS
VSB - VISIBILITY IN STATUTE MILES
WCI - WIND CHILL INDEX
HX  - HEAT INDEX




USA.gov is the U.S. government's official web portal to all federal, state and local government web resources and services.